GW0759 Weather Reports


Display with metric or nautical units.
time (UTC)temp
F
wind
direction
speed
MPH
gust
MPH
rain 1hr
in
rain 24hr
in
rain mn
in
humidity
%
barometer
mb
20260502194557 73 299 3.0 8.0 0.00 0.00 0.00 44 1018.9
20260502193052 74 325 3.0 8.0 0.00 0.00 0.00 44 1019.2
20260502191550 72 355 2.0 9.0 0.00 0.00 0.00 40 1019.4
20260502190050 73 304 5.0 10.0 0.00 0.00 0.00 49 1019.4
20260502184553 72 32 1.0 8.0 0.00 0.00 0.00 45 1019.6
20260502183053 72 335 4.0 11.0 0.00 0.00 0.00 47 1019.9
20260502181551 72 332 6.0 10.0 0.00 0.00 0.00 48 1019.9
20260502163056 68 331 2.0 7.0 0.00 0.00 0.00 57 1020.9
20260502161552 67 343 3.0 10.0 0.00 0.00 0.00 59 1020.8
20260502151553 64 297 5.0 11.0 0.00 0.00 0.00 67 1020.6
20260502123054 50 0 0.0 2.0 0.00 0.01 0.00 86 1019.3
20260502121553 49 333 1.0 2.0 0.00 0.01 0.00 87 1019.1
20260502114621 50 0 0.0 3.0 0.00 0.01 0.00 84 1018.6
20260502113049 50 333 0.0 4.0 0.00 0.01 0.00 83 1018.4
20260502111550 50 333 1.0 3.0 0.00 0.01 0.00 85 1018.2
20260502110053 49 333 0.0 2.0 0.00 0.01 0.00 85 1017.8
20260502104551 49 0 0.0 2.0 0.00 0.01 0.00 87 1017.8
20260502103051 48 0 0.0 2.0 0.00 0.01 0.00 88 1017.7
20260502101603 49 0 0.0 0.0 0.00 0.01 0.00 84 1017.4
20260502100105 50 0 0.0 2.0 0.00 0.01 0.00 85 1017.3
20260502064614 49 0 0.0 0.0 0.00 0.01 0.00 91 1017.3
20260502063104 50 0 0.0 0.0 0.00 0.01 0.00 91 1017.6
20260502061548 50 0 0.0 0.0 0.00 0.01 0.00 91 1017.6
20260502060049 50 0 0.0 0.0 0.00 0.01 0.00 91 1017.5
20260502054553 51 0 0.0 0.0 0.00 0.01 0.00 90 1017.7
20260502053056 51 0 0.0 0.0 0.00 0.01 0.00 90 1017.8
20260502051547 51 0 0.0 0.0 0.00 0.01 0.00 89 1017.5
20260502050053 52 0 0.0 0.0 0.00 0.01 0.00 88 1017.3
20260502044547 53 0 0.0 0.0 0.00 0.01 0.01 89 1017.4
20260502043122 53 0 0.0 0.0 0.00 0.01 0.01 88 1017.3
20260502041559 52 0 0.0 0.0 0.00 0.01 0.01 87 1017.3
20260502040050 52 0 0.0 0.0 0.00 0.01 0.01 84 1017.2
20260502034552 53 0 0.0 0.0 0.00 0.01 0.01 83 1017.2
20260502033052 53 0 0.0 0.0 0.00 0.01 0.01 82 1017.1
20260502031548 53 0 0.0 1.0 0.00 0.01 0.01 82 1016.9
20260502030057 54 0 0.0 0.0 0.00 0.01 0.01 81 1017.0
20260502024555 56 0 0.0 2.0 0.00 0.01 0.01 78 1016.8
20260502023104 57 333 1.0 3.0 0.00 0.01 0.01 73 1016.6
20260502021553 57 333 1.0 3.0 0.00 0.01 0.01 74 1016.3
20260502020055 57 0 0.0 3.0 0.00 0.01 0.01 74 1016.3
20260502014551 58 350 1.0 3.0 0.00 0.01 0.01 70 1016.0
20260502013059 58 266 0.0 4.0 0.00 0.01 0.01 70 1015.5
20260502011559 58 149 1.0 4.0 0.00 0.01 0.01 69 1015.3
20260502010049 58 0 0.0 3.0 0.00 0.01 0.01 68 1015.1
20260502004548 59 200 1.0 6.0 0.00 0.01 0.01 67 1014.6
20260502003046 59 152 2.0 10.0 0.00 0.01 0.01 67 1014.3
20260502001548 60 148 1.0 6.0 0.00 0.01 0.01 66 1014.1
20260502000050 60 0 1.0 4.0 0.00 0.01 0.01 67 1014.1
20260501234546 61 287 1.0 4.0 0.00 0.01 0.01 67 1013.9
20260501233050 61 167 1.0 4.0 0.00 0.01 0.01 65 1013.6
20260501231548 61 327 1.0 6.0 0.00 0.01 0.01 65 1013.7
20260501230048 61 5 4.0 9.0 0.00 0.01 0.01 64 1013.4
20260501224547 61 345 3.0 11.0 0.00 0.02 0.01 64 1013.4
20260501223049 61 17 5.0 13.0 0.00 0.02 0.01 60 1013.2
20260501221549 62 323 5.0 15.0 0.00 0.02 0.01 60 1013.3
20260501220105 62 352 3.0 11.0 0.00 0.02 0.01 62 1013.2
20260501214553 62 5 4.0 11.0 0.00 0.04 0.01 62 1013.2
20260501213052 62 51 4.0 8.0 0.00 0.04 0.01 63 1013.4
20260501211558 61 355 3.0 8.0 0.00 0.04 0.01 61 1013.4
20260501210055 61 360 3.0 9.0 0.00 0.04 0.01 61 1013.4
20260501204607 61 342 3.0 6.0 0.00 0.05 0.01 62 1013.6
20260501203050 60 338 3.0 8.0 0.00 0.05 0.01 64 1013.8
20260501201550 60 351 2.0 6.0 0.00 0.05 0.01 63 1014.5
20260501200050 59 336 2.0 6.0 0.00 0.05 0.01 61 1014.4